Torna al catalogo

FENGYUN 1C DEB

AttivoSSO
NORAD 30358·DEBRIS·🇨🇳 China

Lanciato May 10, 1999 da Taiyuan Satellite Launch Center

Loading…

Prossimi Passaggi (prossime 24 ore)

TLE

AggiornatoSource: Space-Track

Epoca: Sep 14, 2026, 11:08 UTC

1 30358U 99025ABV 26257.46408319  .00001958  00000-0  87051-3 0  9998
2 30358  98.5572  83.2170 0082316 118.4970 272.4195 14.22211163  8324

Traccia FENGYUN 1C DEB in tempo reale con AllMySat

Download on the App Store